(56673) = 1998 YD22 = 2000 KT76

Discovered at Socorro on 2000-05-27 by LINEAR.

Orbit

Orbit type: Main Belt

Note: WebGL enabled browser required.

epoch2024-03-31.0
epoch JD2460400.5
perihelion date2022-03-28.76312
perihelion JD2459667.26312
argument of perihelion (°)198.28000
ascending node (°)113.73701
inclination (°)5.27184
eccentricity0.1498949
perihelion distance (AU)1.9778946
Tisserand w.r.t. Jupiter3.6
ΔV w.r.t. Earth (km/sec)8.9
semimajor axis (AU)2.3266471
mean anomaly (°)203.63497
mean daily motion (°/day)0.27772060
aphelion distance (AU)2.675
period (years)3.55
P-vector [x]0.66813665
P-vector [y]-0.67066602
P-vector [z]-0.32218086
Q-vector [x]0.73926938
Q-vector [y]0.64733814
Q-vector [z]0.18556431
absolute magnitude15.78
phase slope0.15
uncertainty0
referenceMPEC 2024-F14
observations used1428
oppositions19
arc length (days)9213
first opposition used1998
last opposition used2024
residual rms (arc-secs)0.63
perturbers coarse indicatorM-v
perturbers precise indicator003Ek
first observation date used1998-12-26.0
last observation date used2024-03-17.0
computer nameMPCLINUX
JD of orbit computation2456937.436707
perihelion JD uncertainty (days)6.2887E-05
argument of perihelion uncertainty (°)5.3194E-05
ascending node uncertainty (°)5.0846E-05
inclination uncertainty (°)4.3439E-06
eccentricity uncertainty 4.0899E-08
perihelion distance uncertainty (AU)9.8345E-08
Minimum Orbit Intersection Distances (in AU)
for orbit epoch: 2460400.5, reference: E2024-GB3
Mercury1.54551
Venus1.24991
Earth0.9641
Mars0.57903
Jupiter2.56274
Saturn6.42683
Uranus15.8104
Neptune27.4294

Observations

1448 total observations over interval: 1998 12 13.42106 – 2024 03 17.224538
These data are available for download (format description).

Date (UT) J2000 RA J2000 Dec Magn Location Ref
1998 12 13.42106 09 03 32.70 +17 06 23.4 21.1 V 691 – Steward Observatory, Kitt Peak-Spacewatch MPS 81294
1998 12 13.44295 09 03 32.45 +17 06 26.4 21.2 V 691 – Steward Observatory, Kitt Peak-Spacewatch MPS 81294
1998 12 13.46481 09 03 32.20 +17 06 29.6 21.2 V 691 – Steward Observatory, Kitt Peak-Spacewatch MPS 81294
1998 12 26.44550 08 58 58.68 +17 49 57.3 20.1 V 691 – Steward Observatory, Kitt Peak-Spacewatch MPS 3479
1998 12 26.46960 08 58 57.87 +17 50 03.5 20.3 V 691 – Steward Observatory, Kitt Peak-Spacewatch MPS 3479
1998 12 26.49198 08 58 57.11 +17 50 08.8 20.0 V 691 – Steward Observatory, Kitt Peak-Spacewatch MPS 3479
1998 12 28.51936 08 57 48.15 +17 58 53.9 20.0 V 691 – Steward Observatory, Kitt Peak-Spacewatch MPS 3479
1998 12 28.53769 08 57 47.46 +17 58 59.4 20.0 V 691 – Steward Observatory, Kitt Peak-Spacewatch MPS 3479
1998 12 28.55604 08 57 46.77 +17 59 03.9 20.3 V 691 – Steward Observatory, Kitt Peak-Spacewatch MPS 3479
2000 04 26.32268 16 28 40.00 -13 51 19.4 18.4 R 699 – Lowell Observatory-LONEOS MPS 17687
2000 04 26.34494 16 28 39.38 -13 51 15.7   699 – Lowell Observatory-LONEOS MPS 17687
2000 04 26.36711 16 28 38.75 -13 51 14.5   699 – Lowell Observatory-LONEOS MPS 17687
2000 04 26.38937 16 28 38.02 -13 51 10.3   699 – Lowell Observatory-LONEOS MPS 17687
2000 05 27.31023 16 02 40.62 -12 56 06.6 18.3   704 – Lincoln Laboratory ETS, New Mexico MPS 17100
2000 05 27.32384 16 02 39.74 -12 56 06.3 18.5   704 – Lincoln Laboratory ETS, New Mexico MPS 17100
2000 05 27.33745 16 02 38.89 -12 56 04.4 18.3   704 – Lincoln Laboratory ETS, New Mexico MPS 17100
2000 05 27.36453 16 02 37.09 -12 56 04.4 19.5   704 – Lincoln Laboratory ETS, New Mexico MPS 17100
2000 06 07.28280 15 51 49.92 -12 53 26.5 18.7 V 691 – Steward Observatory, Kitt Peak-Spacewatch MPS 17100
2000 06 07.31285 15 51 48.18 -12 53 27.3 18.6 V 691 – Steward Observatory, Kitt Peak-Spacewatch MPS 17100
2000 06 07.34293 15 51 46.45 -12 53 27.9 18.7 V 691 – Steward Observatory, Kitt Peak-Spacewatch MPS 17100
2000 06 23.25441 15 40 07.64 -13 16 45.4 18.9 V 691 – Steward Observatory, Kitt Peak-Spacewatch MPS 17687
2000 06 23.27710 15 40 06.89 -13 16 48.8 18.9 V 691 – Steward Observatory, Kitt Peak-Spacewatch MPS 17687
2000 06 23.29889 15 40 06.17 -13 16 52.0 18.9 V 691 – Steward Observatory, Kitt Peak-Spacewatch MPS 17687
2000 07 03.18382 15 36 39.58 -13 48 13.3 19.1 V 691 – Steward Observatory, Kitt Peak-Spacewatch MPS 17687
2000 07 03.20552 15 36 39.29 -13 48 18.2 19.1 V 691 – Steward Observatory, Kitt Peak-Spacewatch MPS 17687
2000 07 03.22695 15 36 39.01 -13 48 23.0 19.0 V 691 – Steward Observatory, Kitt Peak-Spacewatch MPS 17687
2001 11 17.30862 04 42 29.09 +15 32 02.6 19.3   704 – Lincoln Laboratory ETS, New Mexico MPS 41769
2001 11 17.32402 04 42 28.11 +15 32 01.7 19.4   704 – Lincoln Laboratory ETS, New Mexico MPS 41769
2001 11 17.33867 04 42 27.21 +15 32 01.0 19.7   704 – Lincoln Laboratory ETS, New Mexico MPS 41769
2001 11 17.35359 04 42 26.24 +15 31 59.3 19.6   704 – Lincoln Laboratory ETS, New Mexico MPS 41769
2001 11 20.29492 04 39 21.07 +15 28 28.6 18.6   704 – Lincoln Laboratory ETS, New Mexico MPS 41769
2001 11 20.30946 04 39 20.01 +15 28 27.2 19.1   704 – Lincoln Laboratory ETS, New Mexico MPS 41769
2001 11 20.32549 04 39 18.99 +15 28 26.0 18.9   704 – Lincoln Laboratory ETS, New Mexico MPS 41769
2001 11 20.34008 04 39 18.01 +15 28 24.2 19.3   704 – Lincoln Laboratory ETS, New Mexico MPS 41769
2001 11 20.35507 04 39 16.99 +15 28 23.2 18.8   704 – Lincoln Laboratory ETS, New Mexico MPS 41769
2001 11 24.22380 04 35 04.46 +15 24 16.4 18.5   704 – Lincoln Laboratory ETS, New Mexico MPS 43265
2001 11 24.26805 04 35 01.46 +15 24 13.9 18.8   704 – Lincoln Laboratory ETS, New Mexico MPS 43265
2001 11 24.28294 04 35 00.41 +15 24 12.1 18.9   704 – Lincoln Laboratory ETS, New Mexico MPS 43265
2001 12 05.52293 04 22 31.11 +15 16 19.4 20.6   608 – Haleakala-AMOS MPS 43265
2001 12 05.53321 04 22 30.46 +15 16 18.1 20.6   608 – Haleakala-AMOS MPS 43265
2001 12 05.54388 04 22 29.74 +15 16 18.3 20.5   608 – Haleakala-AMOS MPS 43265
2001 12 08.20848 04 19 38.56 +15 15 29.2 18.7 R 699 – Lowell Observatory-LONEOS MPS 43265
2001 12 08.23356 04 19 36.99 +15 15 29.8   699 – Lowell Observatory-LONEOS MPS 43265
2001 12 08.25855 04 19 35.34 +15 15 29.6   699 – Lowell Observatory-LONEOS MPS 43265
2001 12 08.28358 04 19 33.77 +15 15 29.9   699 – Lowell Observatory-LONEOS MPS 43265
2001 12 11.22932 04 16 30.99 +15 15 14.7 18.7   704 – Lincoln Laboratory ETS, New Mexico MPS 43265
2001 12 11.24526 04 16 29.83 +15 15 14.9 19.9   704 – Lincoln Laboratory ETS, New Mexico MPS 43265
2001 12 11.26161 04 16 28.82 +15 15 14.8 19.4   704 – Lincoln Laboratory ETS, New Mexico MPS 43265
2001 12 11.29320 04 16 26.85 +15 15 14.8 19.2   704 – Lincoln Laboratory ETS, New Mexico MPS 43265
2001 12 18.15121 04 09 58.29 +15 17 18.8 19.2   644 – Palomar Mountain/NEAT MPS 43265
2001 12 18.17244 04 09 57.14 +15 17 19.6 19.7   644 – Palomar Mountain/NEAT MPS 43265
2001 12 18.19420 04 09 55.97 +15 17 20.8 19.6   644 – Palomar Mountain/NEAT MPS 43265
2001 12 18.23501 04 09 53.67 +15 17 22.6 19.6   704 – Lincoln Laboratory ETS, New Mexico MPS 43265
2001 12 18.25131 04 09 52.77 +15 17 23.3 19.4   704 – Lincoln Laboratory ETS, New Mexico MPS 43265
2001 12 18.26669 04 09 51.94 +15 17 23.6 19.3   704 – Lincoln Laboratory ETS, New Mexico MPS 43265
2001 12 18.28270 04 09 51.07 +15 17 23.4 19.8   704 – Lincoln Laboratory ETS, New Mexico MPS 43265
2001 12 18.29823 04 09 50.22 +15 17 24.4 19.5   704 – Lincoln Laboratory ETS, New Mexico MPS 43265
2002 01 08.17170 03 57 49.92 +15 49 24.6 20.2   644 – Palomar Mountain/NEAT MPS 48783
2002 01 08.17284 03 57 49.87 +15 49 23.9 19.9   644 – Palomar Mountain/NEAT MPS 48783
2002 01 08.19196 03 57 49.59 +15 49 27.4 20.2   644 – Palomar Mountain/NEAT MPS 48783
2002 01 08.19311 03 57 49.52 +15 49 26.5 20.1   644 – Palomar Mountain/NEAT MPS 48783
2002 01 08.21246 03 57 49.22 +15 49 30.5 20.5   644 – Palomar Mountain/NEAT MPS 48783
2002 01 08.21362 03 57 49.17 +15 49 29.8 20.3   644 – Palomar Mountain/NEAT MPS 48783
2002 01 15.08545 03 56 46.94 +16 08 12.3 19.7   704 – Lincoln Laboratory ETS, New Mexico MPS 48783
2002 01 15.10063 03 56 46.94 +16 08 16.1 20.4   704 – Lincoln Laboratory ETS, New Mexico MPS 48783
2002 01 15.11581 03 56 46.83 +16 08 18.6 20.2   704 – Lincoln Laboratory ETS, New Mexico MPS 48783
2002 01 15.13405 03 56 46.75 +16 08 21.3 19.5   704 – Lincoln Laboratory ETS, New Mexico MPS 48783
2002 01 15.14923 03 56 46.68 +16 08 24.0 19.5   704 – Lincoln Laboratory ETS, New Mexico MPS 48783
2003 02 09.40103 11 53 31.04 +07 11 54.5 20.3 V 291 – LPL/Spacewatch II MPS 73127
2003 02 09.42445 11 53 30.37 +07 12 02.7 20.2 V 291 – LPL/Spacewatch II MPS 73127
2003 02 09.45935 11 53 29.41 +07 12 15.3 20.2 V 291 – LPL/Spacewatch II MPS 73127
2003 02 11.56903 11 52 30.82 +07 25 10.6 20.9   608 – Haleakala-AMOS MPS 73127
2003 02 11.57962 11 52 30.51 +07 25 14.7 20.7   608 – Haleakala-AMOS MPS 73127
2003 02 11.59030 11 52 30.17 +07 25 18.7 20.2   608 – Haleakala-AMOS MPS 73127
2003 03 06.32324 11 35 48.07 +10 10 51.8 19.0   704 – Lincoln Laboratory ETS, New Mexico MPS 73792
2003 03 06.33660 11 35 47.32 +10 10 58.0 19.0   704 – Lincoln Laboratory ETS, New Mexico MPS 73792
2003 03 06.35018 11 35 46.50 +10 11 04.0 18.8   704 – Lincoln Laboratory ETS, New Mexico MPS 73792
2003 03 06.35705 11 35 46.15 +10 11 07.6 18.4 R 699 – Lowell Observatory-LONEOS MPS 73792
2003 03 06.36367 11 35 45.71 +10 11 10.0 19.0   704 – Lincoln Laboratory ETS, New Mexico MPS 73792
2003 03 06.37192 11 35 45.30 +10 11 13.6   699 – Lowell Observatory-LONEOS MPS 73792
2003 03 06.38679 11 35 44.44 +10 11 21.0   699 – Lowell Observatory-LONEOS MPS 73792
2003 03 06.40161 11 35 43.63 +10 11 27.8   699 – Lowell Observatory-LONEOS MPS 73792
2003 03 07.39055 11 34 49.01 +10 19 00.9 18.3 R 699 – Lowell Observatory-LONEOS MPS 73792
2003 03 07.40670 11 34 48.06 +10 19 07.6   699 – Lowell Observatory-LONEOS MPS 73792
2003 03 07.42298 11 34 47.11 +10 19 14.9   699 – Lowell Observatory-LONEOS MPS 73792
2003 03 07.43916 11 34 46.20 +10 19 22.5   699 – Lowell Observatory-LONEOS MPS 73792
